Terminal Aerodrome Forecast
Issued by NWS Brownsville, TX

Home | Current Version | Previous Version | Text Only | Print | Product List | Glossary On
Versions: 1 2 3 4 5 6 7 8 9 10 11 12 13 14 15 16 17 18 19 20 21 22 23 24 25 26 27 28
000
FTUS44 KBRO 012300
TAFHRL
TAF
KHRL 012336Z 0200/0224 16012KT P6SM FEW035 SCT250
     FM020700 16010KT 5SM BR BKN022
      TEMPO 0210/0214 1SM BR BKN012
     FM021500 16013KT P6SM BKN028
     FM021700 16015KT P6SM SCT035=

USA.gov is the U.S. government's official web portal to all federal, state and local government web resources and services.